Time,TemperatureF,DewpointF,PressureIn,WindDirection,WindDirectionDegrees,WindSpeedMPH,WindSpeedGustMPH,Humidity,HourlyPrecipIn,Conditions,Clouds,dailyrainin,SolarRadiationWatts/m^2,SoftwareType,DateUTC
2013-07-23 00:01:00,66.0,38.0,-100.00,SSE,150,6.0,11.0,35,0.00,,,0.00,0.000000,,2013-07-23 06:01:00,
2013-07-23 00:11:00,66.0,38.0,-100.00,SSE,150,6.0,11.0,35,0.00,,,0.00,0.000000,,2013-07-23 06:11:00,
2013-07-23 00:42:00,62.0,40.0,-100.00,North,349,4.0,10.0,44,0.00,,,0.00,0.000000,,2013-07-23 06:42:00,
2013-07-23 00:52:00,62.0,40.0,-100.00,North,349,4.0,10.0,44,0.00,,,0.00,0.000000,,2013-07-23 06:52:00,
2013-07-23 01:01:00,62.0,40.0,-100.00,North,349,4.0,10.0,44,0.00,,,0.00,0.000000,,2013-07-23 07:01:00,
2013-07-23 01:11:00,62.0,40.0,-100.00,North,349,4.0,10.0,44,0.00,,,0.00,0.000000,,2013-07-23 07:11:00,
2013-07-23 01:42:00,58.0,42.0,-100.00,SE,136,2.0,8.0,56,0.00,,,0.00,0.000000,,2013-07-23 07:42:00,
2013-07-23 01:52:00,58.0,42.0,-100.00,SE,136,2.0,8.0,56,0.00,,,0.00,0.000000,,2013-07-23 07:52:00,
2013-07-23 02:01:00,58.0,42.0,-100.00,SE,136,2.0,8.0,56,0.00,,,0.00,0.000000,,2013-07-23 08:01:00,
2013-07-23 02:11:00,58.0,42.0,-100.00,SE,136,2.0,8.0,56,0.00,,,0.00,0.000000,,2013-07-23 08:11:00,
2013-07-23 02:43:00,53.0,44.0,-100.00,SSE,149,3.0,5.0,71,0.00,,,0.00,0.000000,,2013-07-23 08:43:00,
2013-07-23 02:52:00,53.0,44.0,-100.00,SSE,149,3.0,5.0,71,0.00,,,0.00,0.000000,,2013-07-23 08:52:00,
2013-07-23 03:01:00,53.0,44.0,-100.00,SSE,149,3.0,5.0,71,0.00,,,0.00,0.000000,,2013-07-23 09:01:00,
2013-07-23 03:11:00,53.0,44.0,-100.00,SSE,149,3.0,5.0,71,0.00,,,0.00,0.000000,,2013-07-23 09:11:00,
2013-07-23 03:43:00,50.0,43.0,-100.00,East,95,1.0,4.0,77,0.00,,,0.00,0.000000,,2013-07-23 09:43:00,
2013-07-23 03:53:00,50.0,43.0,-100.00,East,95,1.0,4.0,77,0.00,,,0.00,0.000000,,2013-07-23 09:53:00,
2013-07-23 04:01:00,50.0,43.0,-100.00,East,95,1.0,4.0,77,0.00,,,0.00,0.000000,,2013-07-23 10:01:00,
2013-07-23 04:11:00,50.0,43.0,-100.00,East,95,1.0,4.0,77,0.00,,,0.00,0.000000,,2013-07-23 10:11:00,
2013-07-23 04:44:00,49.0,42.0,-100.00,SSE,166,2.0,4.0,78,0.00,,,0.00,0.000000,,2013-07-23 10:44:00,
2013-07-23 04:52:00,49.0,42.0,-100.00,SSE,166,2.0,4.0,78,0.00,,,0.00,0.000000,,2013-07-23 10:52:00,
2013-07-23 05:01:00,49.0,42.0,-100.00,SSE,166,2.0,4.0,78,0.00,,,0.00,0.000000,,2013-07-23 11:01:00,
2013-07-23 05:11:00,49.0,42.0,-100.00,SSE,166,2.0,4.0,78,0.00,,,0.00,0.000000,,2013-07-23 11:11:00,
2013-07-23 06:02:00,46.0,40.0,-100.00,SSW,208,3.0,5.0,79,0.00,,,0.00,0.000000,,2013-07-23 12:02:00,
2013-07-23 06:11:00,46.0,40.0,-100.00,SSW,208,3.0,5.0,79,0.00,,,0.00,0.000000,,2013-07-23 12:11:00,
2013-07-23 06:43:00,48.0,45.0,-100.00,SSE,166,2.0,5.0,88,0.00,,,0.00,1.000000,,2013-07-23 12:43:00,
2013-07-23 07:01:00,48.0,45.0,-100.00,SSE,166,2.0,5.0,88,0.00,,,0.00,1.000000,,2013-07-23 13:01:00,
2013-07-23 07:11:00,48.0,45.0,-100.00,SSE,166,2.0,5.0,88,0.00,,,0.00,1.000000,,2013-07-23 13:11:00,
2013-07-23 07:43:00,51.0,46.0,-100.00,ENE,59,2.0,6.0,82,0.00,,,0.00,37.000000,,2013-07-23 13:43:00,
2013-07-23 07:52:00,51.0,46.0,-100.00,ENE,59,2.0,6.0,82,0.00,,,0.00,37.000000,,2013-07-23 13:52:00,
2013-07-23 08:02:00,51.0,46.0,-100.00,ENE,59,2.0,6.0,82,0.00,,,0.00,37.000000,,2013-07-23 14:02:00,
2013-07-23 08:12:00,51.0,46.0,-100.00,ENE,59,2.0,6.0,82,0.00,,,0.00,37.000000,,2013-07-23 14:12:00,
2013-07-23 10:01:00,71.0,42.0,-100.00,WSW,248,3.0,5.0,35,0.00,,,0.00,396.000000,,2013-07-23 16:01:00,
2013-07-23 10:12:00,71.0,42.0,-100.00,WSW,248,3.0,5.0,35,0.00,,,0.00,396.000000,,2013-07-23 16:12:00,
2013-07-23 11:02:00,76.0,40.0,-100.00,South,176,3.0,6.0,27,0.00,,,0.00,598.000000,,2013-07-23 17:02:00,
2013-07-23 13:48:00,92.0,39.0,-100.00,NE,37,3.0,5.0,16,0.00,,,0.00,1031.000000,,2013-07-23 19:48:00,
2013-07-23 13:55:00,92.0,39.0,-100.00,NE,37,3.0,5.0,16,0.00,,,0.00,1031.000000,,2013-07-23 19:55:00,
2013-07-23 14:11:00,92.0,39.0,-100.00,NE,37,3.0,5.0,16,0.00,,,0.00,1031.000000,,2013-07-23 20:11:00,
2013-07-23 14:47:00,92.0,36.0,-100.00,ENE,60,5.0,7.0,14,0.00,,,0.00,1076.000000,,2013-07-23 20:47:00,
2013-07-23 14:58:00,92.0,36.0,-100.00,ENE,60,5.0,7.0,14,0.00,,,0.00,1076.000000,,2013-07-23 20:58:00,
2013-07-23 15:12:00,92.0,36.0,-100.00,ENE,60,5.0,7.0,14,0.00,,,0.00,1076.000000,,2013-07-23 21:12:00,
2013-07-23 15:48:00,95.0,36.0,-100.00,ESE,109,5.0,7.0,13,0.00,,,0.00,1062.000000,,2013-07-23 21:48:00,
2013-07-23 15:56:00,95.0,36.0,-100.00,ESE,109,5.0,7.0,13,0.00,,,0.00,1062.000000,,2013-07-23 21:56:00,
2013-07-23 16:02:00,95.0,36.0,-100.00,ESE,109,5.0,7.0,13,0.00,,,0.00,1062.000000,,2013-07-23 22:02:00,
2013-07-23 16:11:00,95.0,36.0,-100.00,ESE,109,5.0,7.0,13,0.00,,,0.00,1062.000000,,2013-07-23 22:11:00,
2013-07-23 16:47:00,98.0,35.0,-100.00,SSE,149,3.0,7.0,11,0.00,,,-99.99,975.000000,,2013-07-23 22:47:00,
2013-07-23 17:03:00,98.0,35.0,-100.00,SSE,149,3.0,7.0,11,0.00,,,-99.99,975.000000,,2013-07-23 23:03:00,
2013-07-23 17:12:00,98.0,35.0,-100.00,SSE,149,3.0,7.0,11,0.00,,,-99.99,975.000000,,2013-07-23 23:12:00,
2013-07-23 17:46:00,98.0,35.0,-100.00,NE,39,4.0,6.0,11,0.00,,,0.00,877.000000,,2013-07-23 23:46:00,
2013-07-23 17:58:00,98.0,35.0,-100.00,NE,39,4.0,6.0,11,0.00,,,0.00,877.000000,,2013-07-23 23:58:00,
2013-07-23 18:03:00,98.0,35.0,-100.00,NE,39,4.0,6.0,11,0.00,,,0.00,877.000000,,2013-07-24 00:03:00,
2013-07-23 18:12:00,98.0,35.0,-100.00,NE,39,4.0,6.0,11,0.00,,,0.00,877.000000,,2013-07-24 00:12:00,
2013-07-23 18:50:00,101.0,37.0,-100.00,North,354,2.0,5.0,11,0.00,,,0.00,689.000000,,2013-07-24 00:50:00,
2013-07-23 18:57:00,101.0,37.0,-100.00,North,354,2.0,5.0,11,0.00,,,0.00,689.000000,,2013-07-24 00:57:00,
2013-07-23 19:58:00,97.0,38.0,-100.00,NNW,337,1.0,4.0,13,-99.99,,,0.00,485.000000,,2013-07-24 01:58:00,
2013-07-23 20:12:00,97.0,38.0,-100.00,NNW,337,1.0,4.0,13,-99.99,,,0.00,485.000000,,2013-07-24 02:12:00,
2013-07-23 20:40:00,87.0,48.0,-100.00,NNE,24,2.0,4.0,26,0.00,,,0.00,271.000000,,2013-07-24 02:40:00,
2013-07-23 20:48:00,87.0,48.0,-100.00,NNE,24,2.0,4.0,26,0.00,,,0.00,271.000000,,2013-07-24 02:48:00,
2013-07-23 20:56:00,87.0,48.0,-100.00,NNE,24,2.0,4.0,26,0.00,,,0.00,271.000000,,2013-07-24 02:56:00,
2013-07-23 21:02:00,87.0,48.0,-100.00,NNE,24,2.0,4.0,26,0.00,,,0.00,271.000000,,2013-07-24 03:02:00,
2013-07-23 21:11:00,87.0,48.0,-100.00,NNE,24,2.0,4.0,26,0.00,,,0.00,271.000000,,2013-07-24 03:11:00,
2013-07-23 21:46:00,75.0,40.0,-100.00,ESE,102,3.0,5.0,28,0.00,,,0.00,66.000000,,2013-07-24 03:46:00,
2013-07-23 22:01:00,75.0,40.0,-100.00,ESE,102,3.0,5.0,28,0.00,,,0.00,66.000000,,2013-07-24 04:01:00,
2013-07-23 22:11:00,75.0,40.0,-100.00,ESE,102,3.0,5.0,28,0.00,,,0.00,66.000000,,2013-07-24 04:11:00,